(45503) = 2000 BE15

Discovered at Oizumi on 2000-01-31 by T. Kobayashi.

Orbit

Orbit type: Main Belt

Note: WebGL enabled browser required.

epoch2023-09-13.0
epoch JD2460200.5
perihelion date2020-11-03.23765
perihelion JD2459156.73765
argument of perihelion (°)27.12084
ascending node (°)90.33823
inclination (°)13.36151
eccentricity0.0893771
perihelion distance (AU)2.7558140
Tisserand w.r.t. Jupiter3.2
ΔV w.r.t. Earth (km/sec)11.1
semimajor axis (AU)3.0262957
mean anomaly (°)195.40624
mean daily motion (°/day)0.18721340
aphelion distance (AU)3.297
period (years)5.26
P-vector [x]-0.44877530
P-vector [y]0.77228049
P-vector [z]0.44964827
Q-vector [x]-0.86324851
Q-vector [y]-0.50475084
Q-vector [z]0.00534777
absolute magnitude13.62
phase slope0.15
uncertainty0
referenceMPEC 2024-A48
observations used2560
oppositions20
arc length (days)9133
first opposition used1998
last opposition used2023
residual rms (arc-secs)0.62
perturbers coarse indicatorM-v
perturbers precise indicator003Ek
first observation date used1998-10-29.0
last observation date used2023-10-31.0
computer nameMPCLINUX
JD of orbit computation2456966.860388
perihelion JD uncertainty (days)1.6865E-04
argument of perihelion uncertainty (°)3.9436E-05
ascending node uncertainty (°)2.0278E-05
inclination uncertainty (°)5.1194E-06
eccentricity uncertainty 4.1196E-08
perihelion distance uncertainty (AU)1.3043E-07
Minimum Orbit Intersection Distances (in AU)
for orbit epoch: 2460200.5, reference: E2024-A48
Mercury2.42906
Venus2.03911
Earth1.77766
Mars1.13615
Jupiter1.87577
Saturn6.24869
Uranus15.6634
Neptune26.8262

Observations

2594 total observations over interval: 1998 10 29.41514 – 2023 10 31.224127
These data are available for download (format description).

Date (UT) J2000 RA J2000 Dec Magn Location Ref
1998 10 29.41514 03 36 49.04 +05 16 34.2 17.3 R 699 – Lowell Observatory-LONEOS MPS 17640
1998 10 29.43254 03 36 48.15 +05 16 33.5   699 – Lowell Observatory-LONEOS MPS 17640
1998 10 29.44993 03 36 47.34 +05 16 33.2   699 – Lowell Observatory-LONEOS MPS 17640
1998 11 13.37972 03 24 14.01 +05 02 55.2 17.7   704 – Lincoln Laboratory ETS, New Mexico MPS 16806
1998 11 13.38949 03 24 13.52 +05 02 54.9 17.7   704 – Lincoln Laboratory ETS, New Mexico MPS 16806
1998 11 13.39934 03 24 12.99 +05 02 54.9 17.5   704 – Lincoln Laboratory ETS, New Mexico MPS 16806
1998 11 13.40904 03 24 12.45 +05 02 55.0 17.5   704 – Lincoln Laboratory ETS, New Mexico MPS 16806
1998 11 13.41876 03 24 11.84 +05 02 55.1 18.3   704 – Lincoln Laboratory ETS, New Mexico MPS 16806
1998 11 14.33212 03 23 23.18 +05 02 47.1 17.5 R 699 – Lowell Observatory-LONEOS MPS 16806
1998 11 14.35199 03 23 22.11 +05 02 46.7   699 – Lowell Observatory-LONEOS MPS 16806
1998 11 14.37186 03 23 21.03 +05 02 46.4   699 – Lowell Observatory-LONEOS MPS 16806
1998 12 14.24931 03 00 16.57 +05 56 15.0 17.8 R 699 – Lowell Observatory-LONEOS MPS 17640
1998 12 14.27478 03 00 15.78 +05 56 19.7   699 – Lowell Observatory-LONEOS MPS 17640
1998 12 14.30032 03 00 14.86 +05 56 26.7   699 – Lowell Observatory-LONEOS MPS 17640
1999 12 15.49151 10 39 15.79 +20 34 10.2 18.4   704 – Lincoln Laboratory ETS, New Mexico MPS 12199
1999 12 15.50624 10 39 16.25 +20 34 13.3 18.9   704 – Lincoln Laboratory ETS, New Mexico MPS 12199
1999 12 15.52097 10 39 16.76 +20 34 16.1 18.6   704 – Lincoln Laboratory ETS, New Mexico MPS 12199
1999 12 15.53571 10 39 17.19 +20 34 20.7 18.8   704 – Lincoln Laboratory ETS, New Mexico MPS 12199
2000 01 03.37669 10 45 54.14 +22 11 21.0 18.0   704 – Lincoln Laboratory ETS, New Mexico MPS 10981
2000 01 03.39153 10 45 54.18 +22 11 26.9 18.6   704 – Lincoln Laboratory ETS, New Mexico MPS 10981
2000 01 03.40636 10 45 54.30 +22 11 32.6 18.7   704 – Lincoln Laboratory ETS, New Mexico MPS 10981
2000 01 03.42124 10 45 54.37 +22 11 38.3 19.1   704 – Lincoln Laboratory ETS, New Mexico MPS 10981
2000 01 03.43611 10 45 54.40 +22 11 45.7 18.6   704 – Lincoln Laboratory ETS, New Mexico MPS 10981
2000 01 31.32801 10 39 11.39 +25 59 01.0 18.5   704 – Lincoln Laboratory ETS, New Mexico MPS 10981
2000 01 31.34275 10 39 10.85 +25 59 09.5 17.4   704 – Lincoln Laboratory ETS, New Mexico MPS 10981
2000 01 31.35742 10 39 10.24 +25 59 17.0 18.1   704 – Lincoln Laboratory ETS, New Mexico MPS 10981
2000 01 31.37212 10 39 09.74 +25 59 25.1 17.1   704 – Lincoln Laboratory ETS, New Mexico MPS 10981
2000 01 31.72577 10 38 57.25 +26 02 32.6 17   411 – Oizumi MPS 10280
2000 01 31.74393 10 38 56.54 +26 02 42.3   411 – Oizumi MPS 10280
2000 02 01.68286 10 38 23.01 +26 10 56.3   411 – Oizumi MPS 10280
2000 02 01.69947 10 38 22.29 +26 11 05.3   411 – Oizumi MPS 10280
2000 02 09.57353 10 33 00.83 +27 18 30.5   411 – Oizumi MPS 10280
2000 02 09.58414 10 33 00.46 +27 18 35.7   411 – Oizumi MPS 10280
2000 02 27.52569 10 18 25.17 +29 21 32.1   411 – Oizumi MPS 10981
2000 02 27.54094 10 18 24.40 +29 21 37.3   411 – Oizumi MPS 10981
2000 03 08.52621 10 10 34.56 +30 01 07.2   411 – Oizumi MPS 10981
2000 03 08.53913 10 10 34.01 +30 01 09.6   411 – Oizumi MPS 10981
2000 03 11.11645 10 08 45.28 +30 07 28.1 17.5 R 699 – Lowell Observatory-LONEOS MPS 10981
2000 03 11.14011 10 08 44.26 +30 07 31.9   699 – Lowell Observatory-LONEOS MPS 10981
2000 03 11.16380 10 08 43.24 +30 07 34.5   699 – Lowell Observatory-LONEOS MPS 10981
2000 03 11.17962 10 08 42.52 +30 07 37.5 17.8 R 703 – Catalina Sky Survey MPS 10981
2000 03 11.18745 10 08 42.22 +30 07 37.8   699 – Lowell Observatory-LONEOS MPS 10981
2000 03 11.19535 10 08 41.87 +30 07 39.0 17.4 R 703 – Catalina Sky Survey MPS 10981
2000 03 11.21105 10 08 41.23 +30 07 41.0 17.8 R 703 – Catalina Sky Survey MPS 10981
2000 03 11.22673 10 08 40.59 +30 07 43.3 17.9 R 703 – Catalina Sky Survey MPS 10981
2000 03 12.20830 10 08 01.02 +30 09 41.0 18.4   704 – Lincoln Laboratory ETS, New Mexico MPS 10981
2000 03 12.22145 10 08 00.44 +30 09 42.4 18.7   704 – Lincoln Laboratory ETS, New Mexico MPS 10981
2000 03 12.23591 10 07 59.88 +30 09 43.4 18.7   704 – Lincoln Laboratory ETS, New Mexico MPS 10981
2000 03 12.24905 10 07 59.26 +30 09 45.6 18.6   704 – Lincoln Laboratory ETS, New Mexico MPS 10981
2000 03 12.26258 10 07 58.67 +30 09 46.9 18.8   704 – Lincoln Laboratory ETS, New Mexico MPS 10981
2001 04 15.35798 16 18 30.76 -09 51 28.6 18.4   704 – Lincoln Laboratory ETS, New Mexico MPS 29519
2001 04 15.37144 16 18 30.33 -09 51 28.0 18.4   704 – Lincoln Laboratory ETS, New Mexico MPS 29519
2001 04 15.39840 16 18 29.62 -09 51 26.1 18.7   704 – Lincoln Laboratory ETS, New Mexico MPS 29519
2001 04 23.42263 16 14 30.31 -09 43 03.6 19.2 R 919 – Desert Beaver Observatory MPS 30014
2001 04 23.44572 16 14 29.43 -09 43 02.9 19.5 R 919 – Desert Beaver Observatory MPS 30014
2001 04 24.39581 16 13 56.00 -09 42 08.0 18.5   704 – Lincoln Laboratory ETS, New Mexico MPS 30014
2001 04 24.41119 16 13 55.45 -09 42 06.6 18.4   704 – Lincoln Laboratory ETS, New Mexico MPS 30014
2001 04 24.42621 16 13 54.88 -09 42 06.1 18.9   704 – Lincoln Laboratory ETS, New Mexico MPS 30014
2001 04 24.44094 16 13 54.33 -09 42 04.6 19.0   704 – Lincoln Laboratory ETS, New Mexico MPS 30014
2001 04 24.45483 16 13 53.87 -09 42 03.7 18.9   704 – Lincoln Laboratory ETS, New Mexico MPS 30014
2001 04 25.45302 16 13 17.57 -09 41 08.7 19.4 R 919 – Desert Beaver Observatory MPS 30014
2001 04 25.47179 16 13 16.85 -09 41 07.3 19.3 R 919 – Desert Beaver Observatory MPS 30014
2001 04 25.48379 16 13 16.36 -09 41 06.7 19.4 R 919 – Desert Beaver Observatory MPS 30014
2001 04 26.31077 16 12 45.73 -09 40 22.0 19.1 R 919 – Desert Beaver Observatory MPS 30014
2001 04 26.32776 16 12 45.02 -09 40 22.2 20.2 R 919 – Desert Beaver Observatory MPS 30014
2001 04 26.37085 16 12 43.37 -09 40 18.9 18.9 R 919 – Desert Beaver Observatory MPS 30014
2001 04 27.36354 16 12 05.37 -09 39 26.8 19.5 R 919 – Desert Beaver Observatory MPS 30014
2001 04 27.39263 16 12 04.13 -09 39 25.4 19.5 R 919 – Desert Beaver Observatory MPS 30014
2001 04 27.41903 16 12 03.01 -09 39 24.0 19.4 R 919 – Desert Beaver Observatory MPS 30014
2001 04 29.39752 16 10 44.00 -09 37 45.5 19.6 R 919 – Desert Beaver Observatory MPS 30014
2001 04 29.41502 16 10 43.25 -09 37 45.2 19.6 R 919 – Desert Beaver Observatory MPS 30014
2001 04 29.43605 16 10 42.46 -09 37 45.2 19.3 R 919 – Desert Beaver Observatory MPS 30014
2001 04 30.41234 16 10 02.00 -09 36 59.6 19.5 R 919 – Desert Beaver Observatory MPS 30014
2001 04 30.42087 16 10 01.62 -09 36 58.6 18.4 V 691 – Steward Observatory, Kitt Peak-Spacewatch MPS 30014
2001 04 30.43086 16 10 01.21 -09 36 57.2 19.7 R 919 – Desert Beaver Observatory MPS 30014
2001 04 30.44198 16 10 00.73 -09 36 57.7 18.5 V 691 – Steward Observatory, Kitt Peak-Spacewatch MPS 30014
2001 04 30.46298 16 09 59.82 -09 36 56.7 18.6 V 691 – Steward Observatory, Kitt Peak-Spacewatch MPS 30014
2001 04 30.46457 16 09 59.81 -09 36 57.4 19.5 R 919 – Desert Beaver Observatory MPS 30014
2001 05 01.39086 16 09 20.68 -09 36 17.3 19.1 V 919 – Desert Beaver Observatory MPS 30014
2001 05 01.41940 16 09 19.39 -09 36 15.5 19.1 V 919 – Desert Beaver Observatory MPS 30014
2001 05 01.46659 16 09 17.37 -09 36 12.9 19.5 V 919 – Desert Beaver Observatory MPS 30014
2001 05 02.29851 16 08 41.71 -09 35 38.6 18.5 V 691 – Steward Observatory, Kitt Peak-Spacewatch MPS 30014
2001 05 02.32595 16 08 40.47 -09 35 37.4 18.5 V 691 – Steward Observatory, Kitt Peak-Spacewatch MPS 30014
2001 05 02.35329 16 08 39.24 -09 35 36.4 18.5 V 691 – Steward Observatory, Kitt Peak-Spacewatch MPS 30014
2001 05 03.57291 16 07 45.38 -09 34 48.8 18.7   608 – Haleakala-AMOS MPS 30014
2001 05 03.58359 16 07 44.91 -09 34 48.3 18.7   608 – Haleakala-AMOS MPS 30014
2001 05 03.59402 16 07 44.42 -09 34 48.0 18.7   608 – Haleakala-AMOS MPS 30014
2001 05 15.35118 15 58 18.38 -09 31 13.9 18.1 V 691 – Steward Observatory, Kitt Peak-Spacewatch MPS 30801
2001 05 15.35889 15 58 17.98 -09 31 13.9 18.2 V 691 – Steward Observatory, Kitt Peak-Spacewatch MPS 30801
2001 05 15.36608 15 58 17.61 -09 31 13.9 18.1 V 691 – Steward Observatory, Kitt Peak-Spacewatch MPS 30801
